Regional Weather Roundup
Issued by NWS

Home | Current Version | Previous Version | Graphics & Text | Print | Product List | Glossary On
Versions: 1 2 3 4 5 6 7 8 9 10 11 12 13 14 15 16 17 18 19 20 21 22 23 24 25 26 27 28 29 30 31 32 33 34 35 36 37 38 39 40 41 42 43 44 45 46 47 48 49 50
000
ASUS44 KMEG 252010
RWRTN
TENNESSEE HOURLY STATE WEATHER ROUNDUP
NATIONAL WEATHER SERVICE MEMPHIS TN
200 PM CST THU DEC 25 2014

TNZ002-004-019-021-049-052-054-088>092-252100-
WEST TENNESSEE

CITY           SKY/WX    TMP DP  RH WIND       PRES   REMARKS
MEMPHIS INTL   MOSUNNY   54  33  45 S13       30.15S
NWS MEMPHIS      N/A     53 N/A N/A MISG        N/A
JACKSON        SUNNY     52  32  46 SW7       30.15F
DYERSBURG      SUNNY    N/A N/A N/A S8        30.14F
UNION CITY     SUNNY     48  36  61 S12       30.12F
PARIS          SUNNY     48  34  57 S9        30.14S
HUNTINGDON     SUNNY     50  32  50 SW6       30.15R
LEXINGTON      SUNNY     50  34  53 S3        30.15S
SAVANNAH       SUNNY     50  36  57 S8        30.18R
$$

TNZ008-025-027-028-033-062-065-066-252100-
NORTH MIDDLE TENNESSEE

CITY           SKY/WX    TMP DP  RH WIND       PRES   REMARKS
NASHVILLE      MOSUNNY   49  34  56 S8        30.17F
CLARKSVILLE    SUNNY     49  34  56 S8        30.14F
SMYRNA         SUNNY     49  35  58 SW7       30.18S
COOKEVILLE     MOSUNNY   46  36  66 SW9       30.16S
CROSSVILLE     SUNNY     43  32  65 SW5       30.15S
$$

TNZ061-075-076-078-094-096-097-252100-
SOUTH MIDDLE TENNESSEE

CITY           SKY/WX    TMP DP  RH WIND       PRES   REMARKS
FAYETTEVILLE   SUNNY     46  34  61 MISG      30.17S
TULLAHOMA      SUNNY     46  34  61 S7        30.17R
WINCHESTER     SUNNY     48  36  61 CALM      30.17S
MCMINNVILLE    SUNNY     46  36  66 CALM      30.17R
COLUMBIA       SUNNY     50  37  62 SW9       30.15R
SHELBYVILLE    SUNNY     48  37  66 S8        30.18R
$$

TNZ017-018-042-046-047-252100-
NORTHEAST TENNESSEE

CITY           SKY/WX    TMP DP  RH WIND       PRES   REMARKS
TRI CITIES     MOSUNNY   47  31  53 NW5       30.17S
ELIZABETHTON   CLEAR     43  28  56 VRB5      30.16S
$$

TNZ012-013-036-069-073-074-252100-
CENTRAL EAST TENNESSEE

CITY           SKY/WX    TMP DP  RH WIND       PRES   REMARKS
KNOXVILLE      MOSUNNY   47  34  60 S3        30.16F
OAK RIDGE      MOSUNNY   48  33  56 CALM      30.18F
GATLINBURG     CLEAR     48  32  53 N5        30.16F
MORRISTOWN     CLEAR     48  34  57 NW8       30.17S
$$

TNZ083-085-099-252100-
SOUTHEAST TENNESSEE

CITY           SKY/WX    TMP DP  RH WIND       PRES   REMARKS
CHATTANOOGA    MOSUNNY   50  33  52 NE3       30.19S
$$

SKY/WX REPORTED AS FAIR MEANS FEW OR NO CLOUDS BELOW
12 THOUSAND FEET.




USA.gov is the U.S. government's official web portal to all federal, state and local government web resources and services.